| time (UTC) | temp F | wind direction | speed knots | gust knots | rain 1hr in | rain 24hr in | rain mn in | humidity % | barometer mb |
| 20260504220053 | 67 | 360 | 9.6 | 17.4 | 0.00 | 0.00 | 0.00 | 31 | 1002.8 |
| 20260504214552 | 68 | 360 | 1.7 | 10.4 | 0.00 | 0.00 | 0.00 | 32 | 1002.6 |
| 20260504213052 | 67 | 360 | 0.9 | 12.2 | 0.00 | 0.00 | 0.00 | 32 | 1002.5 |
| 20260504211553 | 67 | 360 | 0.0 | 13.0 | 0.00 | 0.00 | 0.00 | 33 | 1002.7 |
| 20260504210106 | 68 | 360 | 1.7 | 12.2 | 0.00 | 0.00 | 0.00 | 32 | 1002.8 |
| 20260504204600 | 67 | 360 | 0.0 | 5.2 | 0.00 | 0.00 | 0.00 | 31 | 1002.8 |
| 20260504203050 | 67 | 360 | 0.0 | 9.6 | 0.00 | 0.00 | 0.00 | 30 | 1002.9 |
| 20260504201551 | 69 | 360 | 0.0 | 11.3 | 0.00 | 0.00 | 0.00 | 30 | 1003.0 |
| 20260504200045 | 67 | 22 | 0.9 | 10.4 | 0.00 | 0.00 | 0.00 | 32 | 1003.1 |
| 20260504194602 | 67 | 360 | 0.0 | 7.8 | 0.00 | 0.00 | 0.00 | 33 | 1003.1 |
| 20260504193045 | 67 | 360 | 0.0 | 11.3 | 0.00 | 0.00 | 0.00 | 32 | 1003.1 |
| 20260504191549 | 67 | 360 | 2.6 | 12.2 | 0.00 | 0.00 | 0.00 | 32 | 1003.3 |
| 20260504184546 | 67 | 360 | 4.3 | 13.9 | 0.00 | 0.00 | 0.00 | 32 | 1003.4 |
| 20260504183043 | 67 | 360 | 4.3 | 13.0 | 0.00 | 0.00 | 0.00 | 32 | 1003.6 |
| 20260504181544 | 65 | 360 | 0.9 | 15.6 | 0.00 | 0.00 | 0.00 | 34 | 1003.6 |
| 20260504180059 | 65 | 360 | 4.3 | 12.2 | 0.00 | 0.00 | 0.00 | 35 | 1003.2 |
| 20260504174536 | 64 | 360 | 4.3 | 13.0 | 0.00 | 0.00 | 0.00 | 36 | 1003.2 |
| 20260504173037 | 64 | 360 | 7.0 | 17.4 | 0.00 | 0.00 | 0.00 | 37 | 1003.3 |
| 20260504171532 | 65 | 360 | 3.5 | 14.8 | 0.00 | 0.00 | 0.00 | 39 | 1003.0 |
| 20260504140113 | 50 | 360 | 0.0 | 0.9 | 0.00 | 0.00 | 0.00 | 59 | 1002.1 |
| 20260504081600 | 49 | 360 | 0.0 | 8.7 | 0.00 | 0.00 | 0.00 | 57 | 1002.4 |
| 20260504044533 | 53 | 360 | 0.0 | 0.0 | 0.00 | 0.00 | 0.00 | 47 | 1003.6 |
| 20260504043033 | 54 | 360 | 0.0 | 0.0 | 0.00 | 0.00 | 0.00 | 46 | 1003.7 |
| 20260504041535 | 56 | 360 | 0.0 | 0.0 | 0.00 | 0.00 | 0.00 | 44 | 1003.9 |
| 20260504040033 | 57 | 360 | 0.0 | 0.0 | 0.00 | 0.00 | 0.00 | 41 | 1004.0 |
| 20260504034541 | 58 | 360 | 0.0 | 0.0 | 0.00 | 0.00 | 0.00 | 40 | 1004.0 |
| 20260504033032 | 59 | 360 | 0.0 | 0.0 | 0.00 | 0.00 | 0.00 | 39 | 1004.0 |
| 20260504031530 | 61 | 360 | 0.0 | 0.0 | 0.00 | 0.00 | 0.00 | 38 | 1003.9 |
| 20260504030038 | 62 | 71 | 0.0 | 0.0 | 0.00 | 0.00 | 0.00 | 37 | 1003.7 |
| 20260504024529 | 63 | 72 | 0.0 | 0.0 | 0.00 | 0.00 | 0.00 | 36 | 1003.8 |
| 20260504023029 | 65 | 360 | 0.0 | 0.0 | 0.00 | 0.00 | 0.00 | 33 | 1003.7 |
| 20260504021528 | 65 | 360 | 0.0 | 0.0 | 0.00 | 0.00 | 0.00 | 32 | 1003.6 |
| 20260504020030 | 66 | 360 | 0.0 | 0.0 | 0.00 | 0.00 | 0.00 | 32 | 1003.5 |
| 20260504014528 | 66 | 360 | 0.0 | 0.0 | 0.00 | 0.00 | 0.00 | 31 | 1003.4 |
| 20260504013028 | 67 | 360 | 0.0 | 5.2 | 0.00 | 0.00 | 0.00 | 30 | 1003.4 |
| 20260504011526 | 67 | 360 | 0.0 | 10.4 | 0.00 | 0.00 | 0.00 | 30 | 1003.3 |
| 20260504010025 | 67 | 360 | 0.9 | 10.4 | 0.00 | 0.00 | 0.00 | 30 | 1003.6 |
| 20260504004528 | 67 | 360 | 4.3 | 18.2 | 0.00 | 0.00 | 0.00 | 32 | 1003.8 |
| 20260504003024 | 69 | 360 | 0.0 | 11.3 | 0.00 | 0.00 | 0.00 | 30 | 1003.8 |
| 20260504001525 | 72 | 360 | 0.0 | 20.0 | 0.00 | 0.00 | 0.00 | 27 | 1003.8 |
| 20260504000022 | 74 | 360 | 0.0 | 4.3 | 0.00 | 0.00 | 0.00 | 19 | 1002.6 |
| 20260503234525 | 75 | 360 | 0.0 | 0.9 | 0.00 | 0.00 | 0.00 | 20 | 1002.6 |
| 20260503233020 | 74 | 360 | 0.0 | 3.5 | 0.00 | 0.00 | 0.00 | 20 | 1002.9 |
| 20260503231520 | 74 | 360 | 0.0 | 0.9 | 0.00 | 0.00 | 0.00 | 20 | 1003.1 |
| 20260503230018 | 74 | 360 | 0.0 | 4.3 | 0.00 | 0.00 | 0.00 | 20 | 1003.0 |
| 20260503224517 | 75 | 360 | 0.0 | 0.0 | 0.00 | 0.00 | 0.00 | 21 | 1002.9 |
| 20260503223022 | 74 | 360 | 0.0 | 0.0 | 0.00 | 0.00 | 0.00 | 20 | 1003.1 |
| 20260503221514 | 75 | 117 | 0.0 | 7.0 | 0.00 | 0.00 | 0.00 | 20 | 1003.2 |